• In Portugal
  • List of Countries
  • For 7 days
  • Water Temperature
  • Satellite Maps
  • Weather Map
  • Weather Widgets
  • user-avatar
    Login

    Hourly Weather Molepolole

    Today, 13 December, Wednesday

    Time Temperature Precipitation Wind Pressure Humidity
    00:00 +22°C° 0.2 mm 4 mps 662 mmHg 66%
    01:00 +22°C° 0.2 mm 3 mps 662 mmHg 68%
    02:00 +24°C° 0 mm 1 mps 662 mmHg 64%
    03:00 +23°C° 0.1 mm 2 mps 662 mmHg 69%
    04:00 +21°C° 0.1 mm 3 mps 662 mmHg 74%
    05:00 +20°C° 0.1 mm 3 mps 661 mmHg 79%
    06:00 +22°C° 0 mm 3 mps 662 mmHg 75%
    07:00 +24°C° 0 mm 3 mps 662 mmHg 70%
    08:00 +25°C° 0 mm 3 mps 663 mmHg 66%
    09:00 +27°C° 0 mm 3 mps 663 mmHg 56%
    10:00 +29°C° 0 mm 3 mps 663 mmHg 47%
    11:00 +31°C° 0 mm 3 mps 663 mmHg 37%
    12:00 +33°C° 0 mm 3 mps 663 mmHg 32%
    13:00 +34°C° 0 mm 3 mps 663 mmHg 26%
    14:00 +36°C° 0 mm 4 mps 662 mmHg 21%
    15:00 +35°C° 0 mm 3 mps 662 mmHg 21%
    16:00 +35°C° 0 mm 3 mps 661 mmHg 22%
    17:00 +34°C° 0 mm 3 mps 661 mmHg 22%
    18:00 +33°C° 0 mm 3 mps 661 mmHg 25%
    19:00 +30°C° 0 mm 3 mps 661 mmHg 27%
    20:00 +29°C° 0 mm 3 mps 661 mmHg 29%
    21:00 +28°C° 0 mm 2 mps 661 mmHg 30%
    22:00 +27°C° 0 mm 2 mps 661 mmHg 30%
    23:00 +26°C° 0 mm 2 mps 662 mmHg 31%

    Tomorrow, 14 December, Thursday

    Time Temperature Precipitation Wind Pressure Humidity
    00:00 +26°C° 0 mm 2 mps 662 mmHg 27%
    01:00 +25°C° 0 mm 3 mps 662 mmHg 23%
    02:00 +24°C° 0 mm 3 mps 662 mmHg 19%
    03:00 +22°C° 0 mm 3 mps 661 mmHg 17%
    04:00 +21°C° 0 mm 3 mps 661 mmHg 16%
    05:00 +21°C° 0 mm 3 mps 661 mmHg 14%
    06:00 +22°C° 0 mm 3 mps 662 mmHg 15%
    07:00 +25°C° 0 mm 3 mps 663 mmHg 15%
    08:00 +27°C° 0 mm 3 mps 664 mmHg 16%
    09:00 +29°C° 0 mm 3 mps 664 mmHg 14%
    10:00 +31°C° 0 mm 2 mps 664 mmHg 12%
    11:00 +32°C° 0 mm 2 mps 665 mmHg 10%
    12:00 +34°C° 0 mm 2 mps 664 mmHg 10%
    13:00 +35°C° 0 mm 3 mps 664 mmHg 9%
    14:00 +37°C° 0 mm 4 mps 664 mmHg 8%
    15:00 +36°C° 0 mm 4 mps 664 mmHg 8%
    16:00 +36°C° 0 mm 4 mps 663 mmHg 8%
    17:00 +36°C° 0 mm 4 mps 663 mmHg 8%
    18:00 +34°C° 0 mm 3 mps 663 mmHg 10%
    19:00 +31°C° 0 mm 2 mps 663 mmHg 11%
    20:00 +29°C° 0 mm 1 mps 662 mmHg 13%
    21:00 +28°C° 0 mm 2 mps 663 mmHg 14%
    22:00 +28°C° 0 mm 2 mps 663 mmHg 14%
    23:00 +27°C° 0 mm 2 mps 663 mmHg 15%

    Day after tomorrow, 15 December, Friday

    Time Temperature Precipitation Wind Pressure Humidity
    00:00 +26°C° 0 mm 2 mps 663 mmHg 16%
    01:00 +25°C° 0 mm 2 mps 663 mmHg 17%
    02:00 +25°C° 0 mm 2 mps 663 mmHg 19%
    03:00 +24°C° 0 mm 3 mps 663 mmHg 26%
    04:00 +22°C° 0 mm 3 mps 663 mmHg 34%
    05:00 +21°C° 0 mm 4 mps 663 mmHg 41%
    06:00 +22°C° 0 mm 5 mps 664 mmHg 49%
    07:00 +22°C° 0 mm 6 mps 665 mmHg 58%
    08:00 +23°C° 0 mm 7 mps 665 mmHg 66%
    09:00 +26°C° 0 mm 7 mps 666 mmHg 58%
    10:00 +28°C° 0 mm 7 mps 666 mmHg 50%
    11:00 +30°C° 0 mm 6 mps 667 mmHg 42%
    12:00 +32°C° 0 mm 6 mps 666 mmHg 37%
    13:00 +33°C° 0 mm 5 mps 666 mmHg 32%
    14:00 +35°C° 0 mm 4 mps 666 mmHg 27%
    15:00 +35°C° 0 mm 4 mps 665 mmHg 27%
    16:00 +35°C° 0 mm 3 mps 665 mmHg 26%
    17:00 +34°C° 0 mm 3 mps 664 mmHg 26%
    18:00 +33°C° 0 mm 4 mps 664 mmHg 31%
    19:00 +30°C° 0 mm 5 mps 664 mmHg 36%
    20:00 +29°C° 0 mm 6 mps 664 mmHg 41%
    21:00 +28°C° 0 mm 6 mps 664 mmHg 45%
    22:00 +27°C° 0 mm 6 mps 665 mmHg 49%
    23:00 +26°C° 0 mm 7 mps 665 mmHg 53%

    16 December, Saturday

    Time Temperature Precipitation Wind Pressure Humidity
    00:00 +24°C° 0 mm 6 mps 665 mmHg 54%
    01:00 +23°C° 0 mm 6 mps 664 mmHg 55%
    02:00 +22°C° 0 mm 6 mps 664 mmHg 56%
    03:00 +22°C° 0 mm 5 mps 664 mmHg 59%
    04:00 +21°C° 0 mm 5 mps 664 mmHg 62%
    05:00 +20°C° 0 mm 5 mps 664 mmHg 65%
    06:00 +21°C° 0 mm 5 mps 665 mmHg 62%
    07:00 +22°C° 0 mm 6 mps 665 mmHg 60%
    08:00 +23°C° 0 mm 6 mps 666 mmHg 57%
    09:00 +26°C° 0 mm 6 mps 666 mmHg 50%
    10:00 +28°C° 0 mm 6 mps 667 mmHg 43%
    11:00 +32°C° 0 mm 6 mps 667 mmHg 36%
    12:00 +33°C° 0 mm 5 mps 666 mmHg 32%
    13:00 +34°C° 0 mm 5 mps 666 mmHg 28%
    14:00 +36°C° 0 mm 4 mps 665 mmHg 24%
    15:00 +36°C° 0 mm 4 mps 665 mmHg 23%
    16:00 +36°C° 0 mm 3 mps 664 mmHg 22%
    17:00 +36°C° 0 mm 3 mps 664 mmHg 21%
    18:00 +34°C° 0 mm 3 mps 664 mmHg 23%
    19:00 +33°C° 0 mm 3 mps 664 mmHg 26%
    20:00 +30°C° 0 mm 3 mps 664 mmHg 29%
    21:00 +29°C° 0 mm 3 mps 664 mmHg 31%
    22:00 +28°C° 0 mm 4 mps 664 mmHg 34%
    23:00 +28°C° 0 mm 4 mps 664 mmHg 37%

    17 December, Sunday

    Time Temperature Precipitation Wind Pressure Humidity
    00:00 +27°C° 0 mm 4 mps 664 mmHg 41%
    01:00 +26°C° 0 mm 4 mps 663 mmHg 45%
    02:00 +25°C° 0 mm 4 mps 663 mmHg 48%
    03:00 +25°C° 0 mm 4 mps 663 mmHg 50%
    04:00 +23°C° 0 mm 4 mps 663 mmHg 52%
    05:00 +23°C° 0 mm 4 mps 663 mmHg 54%
    06:00 +25°C° 0 mm 5 mps 664 mmHg 52%
    07:00 +26°C° 0 mm 5 mps 664 mmHg 50%
    08:00 +27°C° 0 mm 5 mps 665 mmHg 47%
    09:00 +29°C° 0 mm 5 mps 665 mmHg 40%
    10:00 +33°C° 0 mm 5 mps 665 mmHg 33%
    11:00 +35°C° 0 mm 5 mps 666 mmHg 25%
    12:00 +36°C° 0 mm 4 mps 665 mmHg 23%
    13:00 +37°C° 0 mm 4 mps 664 mmHg 20%
    14:00 +38°C° 0 mm 3 mps 664 mmHg 18%
    15:00 +37°C° 0 mm 3 mps 663 mmHg 18%
    16:00 +37°C° 0 mm 2 mps 663 mmHg 17%
    17:00 +37°C° 0 mm 2 mps 663 mmHg 17%
    18:00 +36°C° 0 mm 2 mps 662 mmHg 19%
    19:00 +34°C° 0 mm 2 mps 662 mmHg 22%
    20:00 +32°C° 0 mm 2 mps 662 mmHg 24%
    21:00 +31°C° 0 mm 2 mps 662 mmHg 25%
    22:00 +30°C° 0 mm 2 mps 662 mmHg 26%
    23:00 +29°C° 0 mm 2 mps 662 mmHg 27%

    18 December, Monday

    Time Temperature Precipitation Wind Pressure Humidity
    00:00 +29°C° 0 mm 2 mps 662 mmHg 28%
    01:00 +28°C° 0 mm 2 mps 662 mmHg 29%
    02:00 +28°C° 0 mm 2 mps 662 mmHg 30%
    03:00 +27°C° 0.1 mm 2 mps 662 mmHg 34%
    04:00 +27°C° 0.1 mm 2 mps 662 mmHg 37%
    05:00 +26°C° 0.1 mm 2 mps 662 mmHg 41%
    06:00 +27°C° 0.3 mm 2 mps 663 mmHg 40%
    07:00 +28°C° 0.3 mm 3 mps 663 mmHg 39%
    08:00 +29°C° 0.3 mm 3 mps 664 mmHg 37%
    09:00 +31°C° 0 mm 3 mps 664 mmHg 34%
    10:00 +34°C° 0 mm 3 mps 664 mmHg 30%
    11:00 +36°C° 0 mm 3 mps 665 mmHg 27%
    12:00 +36°C° 0 mm 3 mps 664 mmHg 27%
    13:00 +36°C° 0 mm 3 mps 663 mmHg 26%
    14:00 +36°C° 0 mm 3 mps 663 mmHg 26%
    15:00 +35°C° 0 mm 3 mps 662 mmHg 28%
    16:00 +35°C° 0 mm 2 mps 662 mmHg 29%
    17:00 +34°C° 0 mm 2 mps 662 mmHg 30%
    18:00 +32°C° 0 mm 2 mps 662 mmHg 33%
    19:00 +31°C° 0 mm 2 mps 661 mmHg 36%
    20:00 +30°C° 0 mm 2 mps 661 mmHg 39%
    21:00 +29°C° 0 mm 1 mps 662 mmHg 41%
    22:00 +29°C° 0 mm 1 mps 662 mmHg 42%
    23:00 +28°C° 0 mm 1 mps 662 mmHg 44%
    Show more